GW2028 Weather Reports


time (UTC)temp
C
wind
direction
speed
KPH
gust
KPH
rain 1hr
cm
rain 24hr
cm
rain mn
cm
humidity
%
barometer
mb
20260510093717 7 336 0.0 3.2 0.00 0.69 0.13 93 1017.0
20260510093003 7 336 0.0 3.2 0.00 0.69 0.13 93 1016.9
20260510092503 7 336 0.0 3.2 0.00 0.69 0.13 93 1016.8
20260510092003 7 336 0.0 1.6 0.00 0.69 0.13 93 1016.7
20260510091503 7 336 0.0 4.8 0.00 0.69 0.13 93 1016.6
20260510091003 7 336 0.0 4.8 0.00 0.69 0.13 93 1016.5
20260510090503 7 336 0.0 3.2 0.00 0.69 0.13 93 1016.3
20260510090003 7 0 0.0 0.0 0.00 0.69 0.13 93 1016.2
20260510085503 7 0 0.0 0.0 0.00 0.69 0.13 93 1016.2
20260510085003 7 0 0.0 0.0 0.00 0.69 0.13 93 1016.1
20260510084503 7 0 0.0 0.0 0.00 0.69 0.13 93 1016.1
20260510084003 7 0 0.0 0.0 0.00 0.69 0.13 92 1016.0
20260510083503 7 0 0.0 0.0 0.00 0.69 0.13 92 1015.8
20260510083003 7 0 0.0 0.0 0.00 0.69 0.13 92 1015.8
20260510082503 7 0 0.0 0.0 0.00 0.69 0.13 92 1015.8
20260510082217 7 0 0.0 0.0 0.00 0.69 0.13 92 1015.7
20260510081503 7 0 0.0 0.0 0.00 0.69 0.13 92 1015.5
20260510081003 8 0 0.0 0.0 0.00 0.69 0.13 92 1015.2
20260510080503 8 0 0.0 0.0 0.00 0.69 0.13 92 1015.3
20260510080217 8 0 0.0 0.0 0.00 0.69 0.13 92 1015.3
20260510075503 8 336 0.0 1.6 0.00 0.69 0.13 92 1015.1
20260510075003 8 336 0.0 1.6 0.00 0.69 0.13 92 1015.0
20260510074718 8 0 0.0 0.0 0.00 0.69 0.13 92 1015.1
20260510074003 8 336 0.0 1.6 0.00 0.69 0.13 91 1015.0
20260510073503 8 336 0.0 1.6 0.00 0.69 0.13 91 1015.0
20260510073217 8 336 0.0 1.6 0.00 0.69 0.13 92 1014.9
20260510072503 8 0 0.0 0.0 0.00 0.69 0.13 91 1014.8
20260510072003 8 0 0.0 0.0 0.00 0.69 0.13 91 1014.7
20260510071503 8 0 0.0 0.0 0.00 0.69 0.13 91 1014.8
20260510071003 8 0 0.0 0.0 0.00 0.69 0.13 91 1014.8
20260510070503 8 0 0.0 0.0 0.00 0.69 0.13 91 1014.7
20260510070217 8 0 0.0 0.0 0.00 0.69 0.13 91 1014.7
20260510065718 8 0 0.0 0.0 0.00 0.69 0.13 90 1014.6
20260510065003 9 0 0.0 0.0 0.03 0.69 0.13 90 1014.5
20260510064503 9 336 0.0 3.2 0.03 0.69 0.13 90 1014.5
20260510064003 9 336 0.0 3.2 0.03 0.69 0.13 90 1014.4
20260510063717 9 336 0.0 3.2 0.05 0.69 0.13 89 1014.4
20260510063003 9 336 0.0 1.6 0.08 0.69 0.13 89 1014.3
20260510062503 9 336 0.0 1.6 0.10 0.69 0.13 88 1014.3
20260510062216 9 336 0.0 1.6 0.10 0.69 0.13 88 1014.3
20260510061503 10 336 0.0 3.2 0.13 0.69 0.13 88 1014.2
20260510061003 10 336 0.0 1.6 0.13 0.69 0.13 87 1014.2
20260510060503 10 336 1.6 4.8 0.13 0.69 0.13 87 1014.1
20260510060003 10 335 1.6 9.7 0.13 0.69 0.13 86 1014.0
20260510055503 10 329 3.2 12.9 0.13 0.69 0.13 86 1013.9
20260510055003 10 324 3.2 12.9 0.10 0.66 0.10 86 1014.0
20260510054717 10 340 3.2 12.9 0.10 0.66 0.10 86 1013.9
20260510054003 11 20 3.2 11.3 0.10 0.66 0.10 85 1013.9
20260510053503 11 28 3.2 12.9 0.08 0.64 0.08 84 1013.6
20260510053003 11 22 1.6 12.9 0.05 0.61 0.05 83 1014.4
20260510052503 11 357 1.6 11.3 0.03 0.58 0.03 83 1014.7
20260510052003 12 341 1.6 11.3 0.00 0.56 0.00 82 1014.6
20260510051503 12 323 1.6 6.4 0.00 0.56 0.00 81 1014.3
20260510051003 12 320 3.2 9.7 0.00 0.56 0.00 80 1014.0
20260510050717 12 322 3.2 9.7 0.00 0.56 0.00 80 1013.8
20260510050003 13 301 3.2 8.0 0.00 0.56 0.00 82 1013.2
20260510045503 13 284 3.2 8.0 0.00 0.56 0.00 82 1012.9
20260510045003 13 302 3.2 6.4 0.00 0.56 0.00 82 1012.8
20260510044503 14 280 3.2 11.3 0.00 0.56 0.00 83 1012.8
20260510044003 14 224 1.6 11.3 0.00 0.56 0.00 85 1012.6
20260510043717 14 182 0.0 4.8 0.00 0.56 0.00 85 1012.3
20260510043218 14 0 0.0 0.0 0.00 0.56 0.00 85 1012.3
20260510042503 14 182 0.0 3.2 0.00 0.56 0.00 83 1011.9
20260510042003 14 182 0.0 3.2 0.00 0.56 0.00 83 1011.8
20260510041503 14 0 0.0 0.0 0.00 0.56 0.00 82 1011.7
20260510041003 14 0 0.0 0.0 0.00 0.56 0.00 82 1011.7
20260510040503 14 182 1.6 4.8 0.00 0.56 0.00 82 1011.5
20260510040004 14 182 3.2 8.0 0.00 0.56 0.00 82 1011.4
20260510035503 14 182 3.2 8.0 0.00 0.56 0.56 82 1011.4
20260510035003 14 182 4.8 8.0 0.00 0.56 0.56 82 1011.5
20260510034503 14 182 4.8 11.3 0.00 0.56 0.56 82 1011.5
20260510034003 14 183 6.4 11.3 0.00 0.56 0.56 82 1011.5
20260510033716 14 183 6.4 11.3 0.00 0.56 0.56 82 1011.5
20260510033217 14 183 6.4 11.3 0.00 0.56 0.56 82 1011.4
20260510032503 14 185 6.4 12.9 0.00 0.56 0.56 82 1011.2
20260510032003 14 187 6.4 12.9 0.00 0.56 0.56 81 1011.2
20260510031503 14 192 6.4 17.7 0.00 0.56 0.56 81 1011.2
20260510031003 14 192 6.4 17.7 0.00 0.56 0.56 82 1011.2
20260510030503 14 194 6.4 16.1 0.00 0.56 0.56 82 1011.2
20260510030003 14 194 8.0 16.1 0.00 0.56 0.56 82 1011.3
20260510025718 14 193 6.4 16.1 0.00 0.56 0.56 82 1011.2
20260510025003 14 186 4.8 9.7 0.00 0.56 0.56 82 1011.4
20260510024503 14 181 4.8 8.0 0.00 0.56 0.56 82 1011.2
20260510024217 14 181 4.8 9.7 0.00 0.56 0.56 82 1011.0
20260510023503 14 185 4.8 9.7 0.00 0.56 0.56 81 1010.9
20260510023003 15 193 4.8 12.9 0.00 0.56 0.56 81 1011.0
20260510022503 15 199 4.8 12.9 0.00 0.56 0.56 80 1010.9
20260510022003 15 200 3.2 8.0 0.00 0.56 0.56 79 1010.8
20260510021503 14 200 3.2 6.4 0.00 0.56 0.56 80 1010.8
20260510021003 14 200 3.2 11.3 0.00 0.56 0.56 81 1010.9
20260510020503 14 199 3.2 11.3 0.00 0.56 0.56 82 1010.9
20260510020003 14 197 4.8 14.5 0.00 0.56 0.56 83 1010.8
20260510015503 14 194 6.4 19.3 0.00 0.56 0.56 83 1010.9
20260510015003 14 195 6.4 19.3 0.00 0.56 0.56 83 1010.9
20260510014503 14 198 4.8 11.3 0.00 0.56 0.56 83 1011.0
20260510014003 14 198 4.8 11.3 0.00 0.56 0.56 83 1010.9
20260510013503 14 201 4.8 16.1 0.00 0.56 0.56 84 1010.7
20260510013217 14 202 4.8 16.1 0.00 0.56 0.56 84 1010.7
20260510012503 14 209 6.4 16.1 0.00 0.56 0.56 84 1010.6
20260510012003 14 204 6.4 16.1 0.00 0.56 0.56 84 1010.4
20260510011503 14 195 4.8 11.3 0.00 0.56 0.56 85 1010.4
20260510011217 14 193 4.8 11.3 0.00 0.56 0.56 85 1010.3
20260510010503 14 200 4.8 14.5 0.00 0.56 0.56 86 1010.2
20260510010003 13 202 4.8 14.5 0.00 0.56 0.56 86 1010.3
20260510005503 13 199 6.4 16.1 0.00 0.56 0.56 87 1010.3
20260510005003 13 197 8.0 16.1 0.00 0.56 0.56 87 1010.3
20260510004717 13 198 8.0 20.9 0.00 0.56 0.56 88 1010.3
20260510004003 13 201 8.0 25.7 0.00 0.56 0.56 89 1010.3
20260510003503 13 204 8.0 25.7 0.00 0.56 0.56 90 1010.3
20260510003003 13 203 8.0 22.5 0.00 0.56 0.56 90 1010.3
20260510002503 13 194 6.4 22.5 0.03 0.56 0.56 91 1010.3
20260510002216 13 195 8.0 19.3 0.03 0.58 0.56 91 1010.2
20260510001503 13 198 8.0 20.9 0.03 0.58 0.56 92 1010.2
20260510001003 13 198 4.8 16.1 0.03 0.61 0.56 92 1010.2
20260510000503 13 197 6.4 16.1 0.08 0.61 0.56 93 1010.1
20260510000003 13 198 8.0 17.7 0.10 0.61 0.56 93 1010.1
20260509235503 13 199 6.4 17.7 0.18 0.64 0.56 93 1010.1
20260509235003 13 193 6.4 17.7 0.25 0.64 0.56 93 1010.1
20260509234503 13 189 6.4 16.1 0.33 0.64 0.56 92 1010.0
20260509234003 13 190 4.8 16.1 0.41 0.64 0.56 92 1010.0
20260509233503 13 190 4.8 14.5 0.51 0.64 0.56 92 1010.0
20260509233003 13 196 4.8 14.5 0.56 0.64 0.56 92 1010.0
20260509232503 13 203 4.8 14.5 0.53 0.64 0.53 92 1010.0
20260509232003 13 189 6.4 19.3 0.53 0.64 0.53 92 1010.1
20260509231503 13 183 8.0 19.3 0.53 0.64 0.53 92 1010.1
20260509231003 13 212 4.8 14.5 0.53 0.64 0.53 92 1010.3
20260509230717 13 240 4.8 14.5 0.51 0.61 0.51 91 1010.5
20260509230218 12 266 6.4 12.9 0.46 0.56 0.48 91 1010.5
20260509225503 12 265 8.0 24.1 0.38 0.48 0.41 90 1010.7
20260509225217 13 270 8.0 24.1 0.36 0.46 0.36 90 1010.6
20260509224503 13 292 8.0 20.9 0.23 0.33 0.23 87 1010.6
20260509224003 13 316 8.0 20.9 0.15 0.25 0.15 83 1010.2
20260509223503 15 301 9.7 35.4 0.05 0.15 0.05 78 1010.3
20260509223003 17 283 9.7 35.4 0.00 0.10 0.00 67 1010.0
20260509222503 20 255 6.4 16.1 0.00 0.10 0.00 55 1010.4
20260509222003 20 208 8.0 17.7 0.00 0.10 0.00 53 1008.3
20260509221503 20 204 9.7 24.1 0.00 0.10 0.00 52 1007.7
20260509221003 21 218 11.3 27.4 0.00 0.10 0.00 52 1007.5
20260509220503 21 348 14.5 27.4 0.00 0.10 0.00 51 1007.4
20260509220217 21 354 14.5 27.4 0.00 0.10 0.00 51 1007.4
20260509215716 21 359 14.5 27.4 0.00 0.10 0.00 51 1007.5
20260509215217 21 357 11.3 24.1 0.00 0.10 0.00 51 1007.5
20260509214503 21 359 11.3 27.4 0.00 0.10 0.00 52 1007.3
20260509214003 21 360 9.7 27.4 0.00 0.10 0.00 51 1007.2
20260509213503 21 359 12.9 32.2 0.00 0.10 0.00 51 1007.1
20260509213003 21 303 14.5 32.2 0.00 0.10 0.00 52 1007.1
20260509212503 21 188 12.9 24.1 0.00 0.10 0.00 53 1006.9
20260509212003 21 192 14.5 29.0 0.00 0.10 0.00 53 1007.0
20260509211503 21 193 14.5 29.0 0.00 0.10 0.00 52 1007.2
20260509211003 21 191 12.9 29.0 0.00 0.10 0.00 52 1007.1
20260509210503 21 205 12.9 29.0 0.00 0.10 0.00 52 1007.3
20260509210003 21 346 12.9 25.7 0.00 0.10 0.00 53 1007.4
20260509205503 21 197 12.9 27.4 0.00 0.10 0.00 51 1007.5
20260509205003 21 191 12.9 29.0 0.00 0.10 0.00 51 1007.6
20260509204503 21 201 12.9 29.0 0.00 0.10 0.00 51 1007.7
20260509204003 21 202 12.9 32.2 0.00 0.10 0.00 52 1007.7
20260509203503 21 193 12.9 32.2 0.00 0.10 0.00 52 1008.0
20260509203003 21 198 11.3 30.6 0.00 0.10 0.00 51 1007.9
20260509202503 21 198 11.3 24.1 0.00 0.10 0.00 53 1008.0
20260509202003 21 188 11.3 27.4 0.00 0.10 0.00 53 1008.0
20260509201503 21 185 12.9 30.6 0.00 0.10 0.00 51 1008.3
20260509201003 21 193 14.5 30.6 0.00 0.10 0.00 52 1008.3
20260509200503 21 194 14.5 29.0 0.00 0.10 0.00 53 1008.4
20260509200003 21 186 14.5 29.0 0.00 0.10 0.00 51 1008.4
20260509195503 21 183 12.9 27.4 0.00 0.10 0.00 54 1008.5
20260509195003 21 193 11.3 27.4 0.00 0.10 0.00 54 1008.5
20260509194503 21 185 12.9 29.0 0.00 0.10 0.00 54 1008.5
20260509194003 21 177 12.9 29.0 0.00 0.10 0.00 53 1008.6
20260509193717 21 180 12.9 29.0 0.00 0.10 0.00 53 1008.5
20260509193216 21 184 12.9 37.0 0.00 0.10 0.00 55 1008.8
20260509192503 21 180 12.9 29.0 0.00 0.10 0.00 54 1008.8
20260509192003 21 181 11.3 29.0 0.00 0.10 0.00 56 1008.8
20260509191503 20 194 9.7 25.7 0.00 0.10 0.00 58 1008.9
20260509191003 20 190 12.9 25.7 0.00 0.10 0.00 55 1009.2
20260509190717 21 192 11.3 32.2 0.00 0.10 0.00 52 1009.2
20260509190218 21 200 9.7 32.2 0.00 0.10 0.00 52 1009.4
20260509185503 21 205 11.3 29.0 0.00 0.10 0.00 57 1009.2
20260509185003 21 213 11.3 29.0 0.00 0.10 0.00 55 1009.4
20260509184717 20 219 9.7 29.0 0.00 0.10 0.00 55 1009.4
20260509184003 21 203 11.3 30.6 0.00 0.10 0.00 52 1009.5
20260509183503 21 190 11.3 30.6 0.00 0.10 0.00 53 1009.5
20260509183218 21 187 9.7 24.1 0.00 0.10 0.00 54 1009.4
20260509182503 21 198 9.7 27.4 0.00 0.10 0.00 53 1009.4
20260509182003 21 195 11.3 27.4 0.00 0.10 0.00 56 1009.4
20260509181503 21 190 11.3 27.4 0.00 0.10 0.00 56 1009.4
20260509181003 21 191 9.7 27.4 0.00 0.10 0.00 53 1009.3
20260509180503 21 199 8.0 22.5 0.00 0.10 0.00 56 1009.4
20260509180003 21 196 9.7 22.5 0.00 0.10 0.00 56 1009.5
20260509175503 21 190 9.7 20.9 0.00 0.10 0.00 56 1009.5
20260509175003 21 190 11.3 29.0 0.00 0.10 0.00 56 1009.7
20260509174503 21 196 9.7 29.0 0.00 0.10 0.00 55 1009.7
20260509174003 21 200 9.7 19.3 0.00 0.10 0.00 58 1009.7
20260509173503 21 184 9.7 20.9 0.00 0.10 0.00 61 1009.7
20260509173003 20 180 9.7 20.9 0.00 0.10 0.00 59 1009.6
20260509172503 20 185 11.3 20.9 0.00 0.10 0.00 60 1009.5
20260509172003 20 189 11.3 22.5 0.00 0.10 0.00 61 1009.7
20260509171716 20 192 11.3 22.5 0.00 0.10 0.00 61 1009.7
20260509171003 20 187 9.7 22.5 0.00 0.10 0.00 62 1009.7
20260509170503 20 201 9.7 19.3 0.00 0.10 0.00 64 1009.8
20260509170003 19 203 9.7 25.7 0.00 0.10 0.00 62 1009.8
20260509165503 19 202 9.7 25.7 0.00 0.10 0.00 65 1010.1
20260509165217 19 195 6.4 25.7 0.00 0.10 0.00 64 1010.1
20260509164503 18 207 6.4 19.3 0.00 0.10 0.00 67 1010.2
20260509164003 18 210 6.4 19.3 0.00 0.10 0.00 65 1010.2
20260509163716 18 202 6.4 19.3 0.00 0.10 0.00 70 1010.2
20260509163003 18 185 9.7 17.7 0.00 0.10 0.00 67 1009.9
20260509162503 18 185 8.0 17.7 0.00 0.10 0.00 68 1010.0
20260509162003 18 184 8.0 20.9 0.00 0.10 0.00 67 1010.3
20260509161503 18 185 4.8 20.9 0.00 0.10 0.00 67 1010.4
20260509161003 18 183 4.8 14.5 0.00 0.10 0.00 70 1010.4
20260509160718 18 184 6.4 19.3 0.00 0.10 0.00 69 1010.6
20260509160003 18 191 8.0 19.3 0.00 0.10 0.00 68 1010.6
20260509155503 17 195 8.0 19.3 0.00 0.10 0.00 68 1010.7
20260509155003 17 192 8.0 19.3 0.00 0.10 0.00 70 1010.8
20260509154503 17 210 6.4 16.1 0.00 0.10 0.00 73 1010.7
20260509154003 17 238 4.8 11.3 0.00 0.10 0.00 74 1010.9
20260509153503 17 220 4.8 9.7 0.00 0.10 0.00 73 1010.9
20260509153003 17 223 4.8 9.7 0.00 0.10 0.00 74 1010.9
20260509152718 17 222 4.8 8.0 0.00 0.10 0.00 78 1010.9
20260509152003 16 266 4.8 9.7 0.00 0.10 0.00 77 1010.9
20260509151718 16 277 4.8 9.7 0.00 0.10 0.00 75 1010.9
20260509151003 16 243 3.2 9.7 0.00 0.10 0.00 77 1010.7
20260509150503 16 198 4.8 14.5 0.00 0.10 0.00 80 1010.7
20260509150003 16 185 6.4 14.5 0.00 0.10 0.00 79 1010.7
20260509145503 16 182 6.4 12.9 0.00 0.10 0.00 79 1010.9
20260509145003 16 187 4.8 12.9 0.00 0.10 0.00 80 1010.8
20260509144718 16 188 4.8 12.9 0.00 0.10 0.00 80 1010.8
20260509144003 15 194 4.8 19.3 0.00 0.10 0.00 81 1010.8
20260509143503 15 209 4.8 19.3 0.00 0.10 0.00 81 1010.8
20260509143003 15 221 3.2 11.3 0.00 0.10 0.00 83 1010.7
20260509142717 15 204 3.2 11.3 0.00 0.10 0.00 83 1010.7
20260509142216 15 180 3.2 6.4 0.00 0.10 0.00 84 1010.8
20260509141717 15 182 3.2 14.5 0.00 0.10 0.00 83 1010.8
20260509141003 15 189 3.2 14.5 0.00 0.10 0.00 83 1010.9
20260509140717 15 190 4.8 14.5 0.00 0.10 0.00 83 1010.8
20260509140221 14 195 3.2 16.1 0.00 0.10 0.00 84 1010.9
20260509135503 14 230 3.2 11.3 0.00 0.10 0.00 83 1010.9
20260509135003 15 214 4.8 11.3 0.00 0.10 0.00 84 1010.9
20260509134503 15 194 4.8 11.3 0.00 0.10 0.00 86 1010.9
20260509134003 15 196 4.8 11.3 0.00 0.10 0.00 86 1011.0
20260509133503 15 200 4.8 11.3 0.00 0.10 0.00 87 1011.0
20260509133003 14 182 4.8 11.3 0.00 0.10 0.00 87 1011.0
20260509132717 14 169 4.8 12.9 0.00 0.10 0.00 88 1011.0
20260509132003 14 181 8.0 16.1 0.00 0.10 0.00 89 1010.9
20260509131503 13 205 6.4 16.1 0.00 0.10 0.00 89 1010.9
20260509131003 13 203 6.4 17.7 0.00 0.10 0.00 89 1011.0
20260509130503 13 196 6.4 17.7 0.00 0.10 0.00 88 1011.1
20260509130003 13 186 6.4 19.3 0.00 0.10 0.00 89 1011.0
20260509125503 13 184 8.0 19.3 0.00 0.10 0.00 89 1011.0
20260509125003 13 190 6.4 16.1 0.00 0.10 0.00 89 1011.0
20260509124503 13 189 6.4 19.3 0.00 0.10 0.00 89 1011.1
20260509124003 13 183 8.0 19.3 0.00 0.10 0.00 90 1011.1
20260509123503 13 187 8.0 14.5 0.00 0.10 0.00 90 1011.1
20260509123003 13 191 6.4 17.7 0.00 0.10 0.00 90 1011.2
20260509122503 13 177 6.4 17.7 0.00 0.10 0.00 91 1011.2
20260509122003 13 178 6.4 16.1 0.00 0.10 0.00 90 1011.3
20260509121503 13 188 6.4 16.1 0.00 0.10 0.00 91 1011.3
20260509121003 12 181 6.4 16.1 0.00 0.10 0.00 91 1011.3
20260509120503 12 176 6.4 12.9 0.00 0.10 0.00 91 1011.3
20260509120003 12 184 6.4 14.5 0.00 0.10 0.00 91 1011.3
20260509115503 12 194 6.4 14.5 0.00 0.10 0.00 91 1011.4
20260509115003 12 200 6.4 12.9 0.00 0.10 0.00 91 1011.4
20260509114503 12 204 4.8 12.9 0.00 0.10 0.00 92 1011.4
20260509114003 12 254 4.8 9.7 0.00 0.10 0.00 92 1011.3
20260509113503 12 309 4.8 9.7 0.00 0.10 0.00 91 1011.2
20260509113003 12 300 4.8 12.9 0.00 0.10 0.00 91 1011.4
20260509112716 12 310 4.8 12.9 0.00 0.10 0.00 91 1011.3
20260509112003 12 2 4.8 12.9 0.00 0.10 0.00 91 1011.2
20260509111503 12 176 4.8 9.7 0.00 0.10 0.00 91 1011.2
20260509111003 12 178 4.8 9.7 0.00 0.10 0.00 92 1011.2
20260509110503 12 178 4.8 9.7 0.00 0.10 0.00 92 1011.1
20260509110003 12 178 3.2 11.3 0.00 0.10 0.00 92 1011.0
20260509105503 12 178 4.8 11.3 0.00 0.10 0.00 92 1011.0
20260509105003 12 178 4.8 9.7 0.00 0.10 0.00 92 1011.0
20260509104718 12 178 3.2 9.7 0.00 0.10 0.00 92 1011.0
20260509104003 12 178 4.8 9.7 0.00 0.10 0.00 92 1011.1
20260509103718 12 178 4.8 9.7 0.00 0.10 0.00 92 1011.1
20260509103003 12 178 4.8 9.7 0.00 0.10 0.00 92 1011.1
20260509102503 12 178 4.8 9.7 0.00 0.10 0.00 92 1011.2
20260509102003 12 178 4.8 9.7 0.00 0.10 0.00 92 1011.2
20260509101503 12 178 3.2 8.0 0.00 0.10 0.00 92 1011.1
20260509101003 12 178 3.2 9.7 0.00 0.10 0.00 91 1011.2
20260509100503 12 178 3.2 9.7 0.00 0.10 0.00 91 1011.2
20260509100217 12 178 3.2 9.7 0.00 0.10 0.00 91 1011.2
20260509095718 12 178 3.2 8.0 0.00 0.10 0.00 91 1011.2
20260509095217 12 178 3.2 6.4 0.00 0.10 0.00 91 1011.2
20260509094503 12 178 3.2 6.4 0.00 0.10 0.00 91 1011.1
20260509094003 12 179 3.2 11.3 0.00 0.10 0.00 91 1011.3